Time,TemperatureF,DewpointF,PressureIn,WindDirection,WindDirectionDegrees,WindSpeedMPH,WindSpeedGustMPH,Humidity,HourlyPrecipIn,Conditions,Clouds,dailyrainin,SoftwareType,DateUTC
2015-06-02 00:00:00,68.0,60.9,30.01,NNW,328,0.0,2.0,78,0.00,CLR,CLR,0.00,WeatherDisplay:10.37,2015-06-01 22:00:00,
2015-06-02 01:00:00,66.1,58.3,30.02,West,275,1.0,2.0,76,0.00,CLR,CLR,0.00,WeatherDisplay:10.37,2015-06-01 23:00:00,
2015-06-02 02:00:00,65.6,58.5,30.01,NNE,23,0.0,1.0,78,0.00,CLR,CLR,0.00,WeatherDisplay:10.37,2015-06-02 00:00:00,
2015-06-02 03:00:00,64.5,57.5,30.01,NNW,340,0.0,0.0,78,0.00,CLR,CLR,0.00,WeatherDisplay:10.37,2015-06-02 01:00:00,
2015-06-02 04:00:00,63.9,57.7,30.00,North,356,0.0,0.0,80,0.00,CLR,CLR,0.00,WeatherDisplay:10.37,2015-06-02 02:00:00,
2015-06-02 05:00:00,63.0,56.4,30.01,NW,313,1.0,3.0,79,0.00,CLR,CLR,0.00,WeatherDisplay:10.37,2015-06-02 03:00:00,
2015-06-02 06:00:00,62.4,56.1,30.02,NW,312,0.0,4.0,80,0.00,CLR,CLR,0.00,WeatherDisplay:10.37,2015-06-02 04:00:00,
2015-06-02 07:00:00,66.2,58.0,30.02,NNW,340,0.0,3.0,75,0.00,CLR,CLR,0.00,WeatherDisplay:10.37,2015-06-02 05:00:00,
2015-06-02 08:00:00,72.3,59.4,30.03,West,261,0.0,2.0,64,0.00,CLR,CLR,0.00,WeatherDisplay:10.37,2015-06-02 06:00:00,
2015-06-02 09:00:00,75.5,59.7,30.04,West,281,1.0,5.0,58,0.00,CLR,CLR,0.00,WeatherDisplay:10.37,2015-06-02 07:00:00,
2015-06-02 10:00:00,79.0,59.3,30.03,SSW,208,0.0,3.0,51,0.00,CLR,CLR,0.00,WeatherDisplay:10.37,2015-06-02 08:00:00,
2015-06-02 11:00:00,81.4,58.6,30.03,SW,233,1.0,4.0,46,0.00,CLR,CLR,0.00,WeatherDisplay:10.37,2015-06-02 09:00:00,
2015-06-02 12:00:00,84.5,59.6,30.03,SW,232,2.0,7.0,43,0.00,CLR,CLR,0.00,WeatherDisplay:10.37,2015-06-02 10:00:00,
2015-06-02 13:00:00,85.9,58.8,30.02,SSW,212,1.0,12.0,40,0.00,CLR,CLR,0.00,WeatherDisplay:10.37,2015-06-02 11:00:00,
2015-06-02 14:00:00,85.7,63.1,30.02,SW,235,3.0,12.0,47,0.00,CLR,CLR,0.00,WeatherDisplay:10.37,2015-06-02 12:00:00,
2015-06-02 15:00:00,85.3,61.5,30.00,WSW,246,3.0,12.0,45,0.00,CLR,CLR,0.00,WeatherDisplay:10.37,2015-06-02 13:00:00,
2015-06-02 16:00:00,84.3,64.2,30.00,WSW,246,3.0,13.0,51,0.00,CLR,CLR,0.00,WeatherDisplay:10.37,2015-06-02 14:00:00,
2015-06-02 17:00:00,76.9,61.0,30.07,SSW,197,3.0,12.0,58,0.00,CLR,CLR,0.00,WeatherDisplay:10.37,2015-06-02 15:00:00,
2015-06-02 18:00:00,75.7,62.2,30.04,West,264,1.0,8.0,63,0.00,CLR,CLR,0.00,WeatherDisplay:10.37,2015-06-02 16:00:00,
2015-06-02 19:00:00,79.2,62.7,30.03,SSW,194,0.0,4.0,57,0.00,CLR,CLR,0.00,WeatherDisplay:10.37,2015-06-02 17:00:00,
2015-06-02 20:00:00,75.1,62.5,30.04,South,190,1.0,5.0,65,0.00,CLR,CLR,0.00,WeatherDisplay:10.37,2015-06-02 18:00:00,
2015-06-02 21:00:00,72.7,62.8,30.06,SSE,150,0.0,5.0,71,0.00,CLR,CLR,0.00,WeatherDisplay:10.37,2015-06-02 19:00:00,
2015-06-02 22:00:00,71.2,62.5,30.07,East,97,0.0,2.0,74,0.00,CLR,CLR,0.00,WeatherDisplay:10.37,2015-06-02 20:00:00,
2015-06-02 23:00:00,70.1,62.5,30.07,ESE,117,0.0,3.0,77,0.00,CLR,CLR,0.00,WeatherDisplay:10.37,2015-06-02 21:00:00,